Погода в Новом Сулаке

Россия / Республика Дагестан     43°12′42″N   46°48′58″E
темп.,
°C
ветер,
м/с
пор.,
м/с
влажн.,
%
обл.,
%
осадки,
мм/ч
давл.,
гПа
погр.,
м
4 июля, пн
пн400:00+22зюз813449 0.1 1013725
03:00+21з7144719 0.1 1014533
06:00+22з711445 0.0 1015874
09:00+27зсз710295 0.0 10152655
12:00+30сз782139 0.0 10133327
15:00+31ссз77198 0.0 10123358
18:00+30сз462118 0.0 10123062
21:00+22юз454062 0.0 101384
5 июля, вт
вт500:00+21юз48380 0.0 1013107
03:00+20юз34420 0.0 101346
06:00+24зюз36350 0.0 1013204
09:00+30зсз77242 0.0 10132411
12:00+33зсз78208 0.0 10123645
15:00+33сз882116 0.0 10113539
18:00+27вюв664846 0.0 1012552
21:00+23вюв466215 0.0 1014149
6 июля, ср
ср600:00+20вюв23730 0.0 101433
03:00+20ююв116660 0.0 101413
06:00+23зсз10550 0.0 1014142
09:00+29св33270 0.0 10141641
12:00+32св43210 0.0 10142901
15:00+30в97310 0.0 10141412
18:00+25в88440 0.0 10141100
21:00+19в711800 0.0 1016445
7 июля, чт
чт700:00+18в610810 0.0 1015355
03:00+18в6108316 0.0 1015373
06:00+20в710703 0.0 1015725
09:00+25вюв9105216 0.0 10141230
12:00+28в1112410 0.0 10131433
15:00+27в1213380 0.0 10121246
18:00+24в1012441 0.0 1012893
21:00+19вюв711641 0.0 1013359
8 июля, пт
пт800:00+18вюв48753 0.0 1012228
03:00+18вюв497829 0.0 1012254
06:00+20вюв48635 0.0 1012400
09:00+29вюв810275 0.0 10111385
12:00+32в11112191 0.0 10101734
15:00+31вюв111223100 0.0 10091522
18:00+27вюв101334100 0.0 1010880
21:00+22вюв71253100 0.1 1010382